If you wish to contribute or participate in the discussions about articles you are invited to join SKYbrary as a registered user

 Actions

Pointe-Noire/Antonio Agostinho Neto International Airport

From SKYbrary Wiki

FCPP
Airport
ICAO: FCPP – IATA: PNR
Summary
Name Pointe-Noire/Antonio Agostinho Neto International Airport
Region Africa
Territory Republic of the Congo CG.gif
Location Pointe-Noire, Pointe-Noire
Serving Pointe-Noire
Elevation 16.764 m
55 ft16.764 m
Coordinates 4° 48' 53.00" S, 11° 53' 10.00" E
Runways
Designator Length Width Surface ROPS
17/35 2600 m8,530.184 ft
45 m147.638 ft
ASP /


METAR
Observation FCPP 112100Z 22004KT 9999 FEW010 27/24 Q1011 NOSIG
Station Pointe-Noire
Date/Time 11 December 2019 21:00:00
Wind direction 220°
Wind speed 04 kts
Lowest cloud amount few clouds
Temperature 27°C
Dew point 24°C
Humidity 83%
QNH 1011 hPa
Weather condition n/a

Antonio Agostinho Neto International Airport, is an airport located in Pointe-Noire, Republic of the Congo. It is one of two international airports in the country, the other being Brazzaville Maya-Maya Airport.

Maps

Terrain

Loading map...

Airport Layout

Loading map...


Accidents & Serious Incidents at or in vicinity of FCPP

None on SKYbrary